"startDT [UTC]","vpos","CH4 [ppm]","stdev(CH4) [ppm]","CO2 [ppm]","stdev(CO2) [ppm]","H2O_reported [%]","stdev(H2O_reported)","CavityPressure [torr]","CavityTemp [C]","OutletValve","CH4_dry [ppm]","CO2_dry [ppm]","DasTemp [C]","EtalonTemp [C]","WarmBoxTemp [C]","MPVPosition","T_ECpre [C]","T_EC1 [C]","T_EC2 [C]","p_inlet [hPa]","p_in [hPa]","p_out [hPa]","T_inlet [C]","RH_inlet [%]","dwpt_inlet [C]","T_vent [C]","RH_vent [%]","dwpt_vent [C]","flow_vent [l min-1]","flow_inlet [l min-1]","dwpt_sample [C]","T_room [C]"
2015-02-03 00:00:00,3.0,1.88305,0.02566,399.225,2.919,0.0117,0.0193,140.309,45.000,31180.52510,1.88677,399.485,32.314,45.068,45.000,0.00,0.09,-272.68,-272.74,-11,524,0,19.0,2.7,-28.3,19.3,3.2,-26.3,5.73,2.42,-23.1,25.3
2015-02-03 00:01:00,3.0,1.87634,0.00036,397.189,0.061,0.0038,0.0020,140.004,45.000,31279.99663,1.87640,397.211,32.313,45.068,45.000,0.00,0.09,-272.68,-272.73,-12,524,0,19.0,2.7,-28.2,19.3,3.2,-26.3,5.73,2.43,-23.1,25.3
2015-02-03 00:02:00,3.0,1.87635,0.00044,397.251,0.087,0.0028,0.0018,140.003,45.000,31338.10870,1.87641,397.260,32.307,45.068,45.000,0.00,0.09,-272.68,-272.75,-11,524,0,19.0,2.7,-28.2,19.3,3.2,-26.3,5.73,2.49,-23.1,25.3
2015-02-03 00:03:00,3.0,1.87606,0.00038,397.494,0.070,0.0033,0.0016,140.004,45.000,31384.11330,1.87612,397.505,32.280,45.068,45.000,0.00,0.09,-272.68,-272.74,-12,523,-0,19.0,2.7,-28.2,19.3,3.2,-26.3,5.73,2.34,-23.2,25.4
2015-02-03 00:04:00,3.0,1.87616,0.00040,397.600,0.031,0.0024,0.0016,140.001,45.000,31420.33403,1.87620,397.611,32.272,45.068,45.000,0.00,0.09,-272.68,-272.74,-12,523,0,19.0,2.7,-28.2,19.3,3.2,-26.3,5.73,2.55,-23.1,25.4
2015-02-03 00:05:00,3.0,1.87615,0.00031,397.617,0.034,0.0018,0.0019,140.004,45.000,31451.89109,1.87619,397.627,32.255,45.069,45.001,0.00,0.09,-272.67,-272.75,-11,523,-0,19.1,2.7,-28.2,19.4,3.2,-26.3,5.73,2.32,-23.2,25.4
2015-02-03 00:06:00,3.0,1.87620,0.00030,397.634,0.033,0.0016,0.0021,140.003,45.000,31478.57013,1.87625,397.641,32.250,45.069,45.001,0.00,0.09,-272.69,-272.74,-12,523,-0,19.1,2.7,-28.2,19.4,3.2,-26.3,5.73,2.52,-23.1,25.5
2015-02-03 00:07:00,3.0,1.87606,0.00035,397.635,0.035,0.0012,0.0014,140.001,45.000,31501.47658,1.87609,397.643,32.249,45.069,45.001,0.00,0.09,-272.67,-272.74,-12,523,-0,19.1,2.7,-28.2,19.4,3.2,-26.3,5.73,2.40,-23.1,25.5
2015-02-03 00:08:00,3.0,1.87586,0.00031,397.643,0.028,0.0012,0.0020,140.002,45.000,31520.26064,1.87586,397.647,32.249,45.069,45.001,0.00,0.09,-272.69,-272.73,-11,523,-0,19.2,2.7,-28.3,19.4,3.2,-26.3,5.73,2.42,-23.1,25.6
2015-02-03 00:09:00,3.0,1.87614,0.00030,397.634,0.030,0.0008,0.0016,139.999,45.000,31535.10243,1.87615,397.637,32.251,45.069,45.000,0.00,0.09,-272.69,-272.75,-12,523,-0,19.2,2.7,-28.2,19.5,3.2,-26.2,5.73,2.49,-23.1,25.6
2015-02-03 00:10:00,3.0,1.87612,0.00032,397.628,0.022,-0.0002,0.0019,140.001,45.000,31550.16549,1.87611,397.628,32.253,45.069,45.000,0.00,0.09,-272.67,-272.73,-11,523,-0,19.3,2.7,-28.2,19.5,3.2,-26.2,5.73,2.34,-23.1,25.6
2015-02-03 00:11:00,3.0,1.87630,0.00034,397.642,0.026,-0.0001,0.0020,140.001,45.000,31561.15848,1.87632,397.641,32.251,45.068,45.000,0.00,0.09,-272.68,-272.73,-12,523,-0,19.3,2.7,-28.2,19.5,3.2,-26.2,5.73,2.55,-23.0,25.7
2015-02-03 00:12:00,3.0,1.87582,0.00029,397.640,0.033,-0.0005,0.0026,139.998,45.000,31571.53659,1.87580,397.636,32.250,45.068,45.000,0.00,0.10,-272.67,-272.77,-12,523,-0,19.4,2.7,-28.2,19.6,3.2,-26.2,5.73,2.32,-23.0,25.7
2015-02-03 00:13:00,3.0,1.87599,0.00030,397.641,0.030,0.0003,0.0023,140.001,45.000,31581.01273,1.87599,397.643,32.248,45.068,45.000,0.00,0.09,-272.69,-272.73,-11,524,-0,19.4,2.7,-28.1,19.6,3.2,-26.1,5.73,2.53,-23.0,25.8
2015-02-03 00:14:00,3.0,1.87600,0.00041,397.649,0.037,-0.0001,0.0019,139.999,45.000,31588.56414,1.87600,397.648,32.248,45.068,45.001,0.00,0.09,-272.67,-272.74,-12,524,-0,19.5,2.7,-28.1,19.7,3.2,-26.1,5.73,2.38,-23.0,25.8
2015-02-03 00:15:00,3.0,1.87608,0.00038,397.650,0.027,0.0001,0.0011,139.998,45.000,31595.23813,1.87607,397.650,32.250,45.068,45.000,0.00,0.09,-272.68,-272.74,-12,524,-0,19.5,2.6,-28.2,19.7,3.2,-26.1,5.73,2.45,-23.0,25.8
2015-02-03 00:16:00,3.0,1.87606,0.00036,397.660,0.028,0.0003,0.0019,140.000,45.000,31603.02456,1.87607,397.662,32.250,45.068,45.000,0.00,0.09,-272.68,-272.75,-11,524,-0,19.6,2.7,-28.1,19.7,3.2,-26.1,5.73,2.46,-23.0,25.9
2015-02-03 00:17:00,3.0,1.87627,0.00025,397.666,0.024,0.0001,0.0022,140.000,45.000,31607.45806,1.87626,397.667,32.251,45.068,45.000,0.00,0.10,-272.67,-272.74,-13,524,-0,19.6,2.6,-28.2,19.7,3.2,-26.1,5.73,2.36,-23.0,25.9
2015-02-03 00:18:00,3.0,1.87592,0.00049,397.660,0.035,-0.0012,0.0013,139.998,45.000,31613.12732,1.87591,397.654,32.292,45.068,45.000,0.00,0.09,-272.68,-272.74,-12,524,-0,19.6,2.6,-28.1,19.8,3.2,-26.1,5.73,2.53,-23.0,25.9
2015-02-03 00:19:00,3.0,1.87591,0.00028,397.653,0.031,-0.0004,0.0017,140.002,45.000,31617.94853,1.87589,397.650,32.314,45.068,45.000,0.00,0.09,-272.69,-272.75,-12,524,-0,19.7,2.6,-28.1,19.8,3.2,-26.0,5.73,2.31,-23.0,26.0
2015-02-03 00:20:00,0.0,1.94781,0.03000,405.287,3.590,0.0585,0.0261,139.744,45.000,28225.48704,1.94543,405.373,32.320,45.068,45.000,0.00,0.09,-272.69,-272.73,-13,22,-0,19.7,2.6,-28.1,19.9,3.2,-26.0,5.73,2.49,-23.0,26.0
2015-02-03 00:21:00,0.0,1.96133,0.00037,406.920,0.042,0.0740,0.0014,139.995,45.000,28084.82647,1.96274,407.284,32.322,45.068,45.000,0.00,0.09,-272.67,-272.74,-13,22,-0,19.8,2.6,-28.1,19.9,3.2,-26.0,5.73,2.48,-22.9,26.0
2015-02-03 00:22:00,0.0,1.96139,0.00035,406.876,0.028,0.0746,0.0018,139.996,45.000,28035.33843,1.96283,407.242,32.338,45.068,45.000,0.00,0.09,-272.68,-272.75,-13,22,-0,19.8,2.6,-28.1,19.9,3.2,-25.9,5.73,2.37,-22.9,26.0
2015-02-03 00:23:00,0.0,1.96114,0.00027,406.882,0.035,0.0751,0.0025,140.000,45.000,27991.86015,1.96261,407.249,32.344,45.068,45.000,0.00,0.09,-272.69,-272.74,-13,22,-0,19.8,2.6,-28.1,19.9,3.2,-25.9,5.73,2.43,-22.9,26.0
2015-02-03 00:24:00,0.0,1.96112,0.00033,406.867,0.034,0.0759,0.0017,139.998,45.000,27958.61523,1.96256,407.238,32.350,45.068,45.000,0.00,0.09,-272.68,-272.73,-13,22,-1,19.9,2.6,-28.1,20.0,3.2,-25.9,5.73,2.52,-22.9,26.0
2015-02-03 00:25:00,0.0,1.96114,0.00034,406.852,0.027,0.0755,0.0018,139.998,45.000,27931.02040,1.96259,407.223,32.331,45.068,45.000,0.00,0.09,-272.68,-272.75,-13,22,-1,19.9,2.6,-28.0,20.0,3.2,-25.9,5.73,2.42,-22.9,26.1
2015-02-03 00:26:00,0.0,1.96128,0.00043,406.850,0.024,0.0755,0.0017,140.001,45.000,27908.25423,1.96275,407.220,32.358,45.068,45.000,0.00,0.09,-272.68,-272.74,-13,22,-1,19.9,2.6,-28.0,20.0,3.2,-25.9,5.73,2.37,-22.9,26.1
2015-02-03 00:27:00,0.0,1.96105,0.00032,406.873,0.022,0.0750,0.0020,139.998,45.000,27886.11651,1.96250,407.239,32.366,45.068,45.000,0.00,0.09,-272.68,-272.73,-13,22,-1,19.9,2.6,-28.0,20.0,3.2,-25.9,5.73,2.49,-22.9,26.1
2015-02-03 00:28:00,0.0,1.96040,0.00068,406.795,0.052,0.0760,0.0014,139.998,45.000,27867.29535,1.96195,407.171,32.375,45.068,45.000,0.00,0.09,-272.68,-272.74,-13,21,-1,19.9,2.6,-28.0,20.1,3.2,-25.9,5.73,2.50,-22.9,26.0
2015-02-03 00:29:00,0.0,1.96016,0.00049,406.740,0.038,0.0763,0.0014,139.997,45.000,27852.25724,1.96159,407.113,32.375,45.068,45.000,0.00,0.09,-272.68,-272.75,-13,22,-1,19.9,2.6,-28.0,20.1,3.2,-25.9,5.73,2.37,-22.9,26.1
2015-02-03 00:30:00,0.0,1.96018,0.00041,406.740,0.028,0.0780,0.0018,139.996,45.000,27839.90693,1.96164,407.120,32.375,45.068,45.000,0.00,0.09,-272.68,-272.74,-13,22,-1,19.9,2.7,-27.8,20.1,3.2,-25.9,5.73,2.42,-22.8,26.1
2015-02-03 00:31:00,0.0,1.96075,0.00028,406.815,0.034,0.0780,0.0019,140.001,45.000,27829.99894,1.96229,407.197,32.374,45.068,45.000,0.00,0.09,-272.68,-272.74,-13,21,-1,19.9,2.7,-27.8,20.1,3.2,-25.8,5.73,2.52,-22.8,26.1
2015-02-03 00:32:00,0.0,1.96030,0.00033,406.778,0.030,0.0775,0.0022,139.999,45.000,27821.36869,1.96182,407.158,32.367,45.068,45.000,0.00,0.09,-272.68,-272.75,-13,21,-1,19.9,2.6,-27.9,20.1,3.2,-25.8,5.73,2.43,-22.8,26.1
2015-02-03 00:33:00,0.0,1.96040,0.00034,406.789,0.024,0.0772,0.0018,140.001,45.000,27814.25734,1.96187,407.166,32.353,45.068,45.000,0.00,0.09,-272.68,-272.74,-14,22,-1,19.9,2.6,-27.9,20.1,3.2,-25.8,5.73,2.36,-22.8,26.1
2015-02-03 00:34:00,0.0,1.96071,0.00046,406.802,0.032,0.0775,0.0016,140.000,45.000,27809.34239,1.96219,407.180,32.321,45.068,45.000,0.00,0.09,-272.68,-272.73,-13,22,-1,19.9,2.6,-28.0,20.1,3.2,-25.8,5.73,2.48,-22.8,26.0
2015-02-03 00:35:00,0.0,1.96096,0.00042,406.812,0.032,0.0767,0.0014,139.998,45.000,27804.55331,1.96243,407.188,32.323,45.068,45.000,0.00,0.09,-272.68,-272.74,-13,22,-1,19.9,2.6,-28.0,20.1,3.2,-25.8,5.73,2.51,-22.8,26.1
2015-02-03 00:36:00,0.0,1.96129,0.00038,406.823,0.021,0.0764,0.0016,139.998,45.000,27800.07679,1.96277,407.196,32.349,45.069,45.001,0.00,0.09,-272.68,-272.75,-13,21,-1,19.9,2.6,-28.1,20.1,3.2,-25.8,5.73,2.38,-22.8,26.1
2015-02-03 00:37:00,0.0,1.96127,0.00034,406.850,0.024,0.0759,0.0012,139.999,45.000,27796.53784,1.96271,407.221,32.364,45.069,45.001,0.00,0.09,-272.68,-272.74,-14,22,-1,19.9,2.6,-28.1,20.1,3.2,-25.8,5.73,2.40,-22.8,26.1
2015-02-03 00:38:00,0.0,1.96122,0.00035,406.879,0.035,0.0759,0.0011,139.999,45.000,27792.93265,1.96269,407.250,32.373,45.068,45.000,0.00,0.09,-272.68,-272.74,-14,22,-1,19.9,2.6,-28.1,20.1,3.2,-25.8,5.73,2.52,-22.8,26.1
2015-02-03 00:39:00,0.0,1.96140,0.00033,406.846,0.034,0.0762,0.0017,139.999,45.000,27787.92027,1.96288,407.220,32.375,45.068,45.000,0.00,0.09,-272.67,-272.74,-13,22,-1,19.9,2.6,-28.1,20.1,3.2,-25.8,5.73,2.45,-22.8,26.1
2015-02-03 00:40:00,0.0,1.96074,0.00048,406.809,0.031,0.0759,0.0015,140.001,45.000,27788.15901,1.96221,407.180,32.377,45.068,45.000,0.00,0.09,-272.67,-272.74,-13,22,-1,19.9,2.6,-28.2,20.1,3.2,-25.8,5.73,2.36,-22.7,26.1
2015-02-03 00:41:00,0.0,1.96086,0.00047,406.819,0.037,0.0763,0.0012,139.999,45.000,27785.77984,1.96232,407.192,32.393,45.068,45.000,0.00,0.09,-272.68,-272.73,-13,22,-1,19.9,2.6,-28.2,20.1,3.2,-25.8,5.73,2.47,-22.7,26.1
2015-02-03 00:42:00,0.0,1.96114,0.00040,406.824,0.044,0.0746,0.0015,140.000,45.000,27782.64575,1.96259,407.190,32.413,45.068,45.000,0.00,0.09,-272.68,-272.74,-14,22,-1,19.9,2.6,-28.2,20.1,3.2,-25.8,5.73,2.51,-22.8,26.1
2015-02-03 00:43:00,0.0,1.96087,0.00045,406.776,0.047,0.0749,0.0018,140.000,45.000,27782.31113,1.96233,407.144,32.438,45.068,45.000,0.00,0.09,-272.68,-272.74,-14,22,-1,19.9,2.6,-28.2,20.1,3.2,-25.8,5.73,2.39,-22.7,26.0
2015-02-03 00:44:00,0.0,1.96095,0.00029,406.817,0.048,0.0752,0.0019,140.000,45.000,27780.10606,1.96238,407.183,32.440,45.068,45.000,0.00,0.09,-272.68,-272.74,-13,22,-1,19.8,2.6,-28.2,20.1,3.2,-25.8,5.73,2.39,-22.7,26.0
2015-02-03 00:45:00,0.0,1.96038,0.00036,406.769,0.034,0.0757,0.0017,139.999,45.000,27779.71704,1.96187,407.140,32.445,45.068,45.000,0.00,0.09,-272.68,-272.74,-13,22,-1,19.8,2.6,-28.2,20.1,3.2,-25.8,5.73,2.52,-22.7,26.0
2015-02-03 00:46:00,0.0,1.96030,0.00056,406.761,0.050,0.0763,0.0022,140.000,45.000,27780.11556,1.96178,407.137,32.443,45.068,45.000,0.00,0.09,-272.68,-272.75,-13,21,-1,19.8,2.6,-28.1,20.1,3.2,-25.7,5.73,2.47,-22.7,26.0
2015-02-03 00:47:00,0.0,1.96034,0.00042,406.760,0.037,0.0767,0.0023,140.001,45.000,27779.31261,1.96180,407.133,32.439,45.068,45.000,0.00,0.09,-272.68,-272.74,-14,22,-1,19.8,2.6,-28.1,20.1,3.2,-25.7,5.73,2.36,-22.7,26.0
2015-02-03 00:48:00,0.0,1.96047,0.00033,406.766,0.037,0.0769,0.0021,139.999,45.000,27778.13886,1.96193,407.144,32.439,45.068,45.000,0.00,0.09,-272.69,-272.74,-13,22,-1,19.8,2.6,-28.1,20.1,3.2,-25.7,5.73,2.44,-22.7,26.0
2015-02-03 00:49:00,0.0,1.96073,0.00045,406.756,0.026,0.0769,0.0020,139.997,45.000,27777.41899,1.96225,407.132,32.444,45.068,45.000,0.00,0.09,-272.69,-272.74,-13,22,-1,19.8,2.6,-28.0,20.1,3.2,-25.7,5.73,2.52,-22.7,26.0
2015-02-03 00:50:00,0.0,1.96094,0.00046,406.790,0.032,0.0763,0.0011,140.002,45.000,27780.24993,1.96236,407.163,32.453,45.068,45.000,0.00,0.09,-272.68,-272.75,-13,22,-1,19.8,2.6,-28.0,20.1,3.2,-25.7,5.73,2.41,-22.7,26.0
2015-02-03 00:51:00,0.0,1.96106,0.00030,406.809,0.032,0.0759,0.0015,140.001,45.000,27778.99940,1.96256,407.181,32.461,45.068,45.000,0.00,0.09,-272.67,-272.74,-14,22,-1,19.8,2.6,-28.1,20.1,3.2,-25.7,5.73,2.37,-22.7,26.0
2015-02-03 00:52:00,0.0,1.96088,0.00031,406.795,0.030,0.0760,0.0016,140.002,45.000,27779.38461,1.96234,407.166,32.459,45.068,45.000,0.00,0.09,-272.69,-272.73,-13,22,-1,19.8,2.6,-28.1,20.1,3.2,-25.7,5.73,2.51,-22.7,26.0
2015-02-03 00:53:00,0.0,1.96099,0.00037,406.784,0.028,0.0757,0.0016,140.002,45.000,27780.86808,1.96244,407.155,32.479,45.068,45.000,0.00,0.09,-272.68,-272.74,-13,22,-1,19.8,2.6,-28.1,20.1,3.2,-25.7,5.73,2.48,-22.7,26.0
2015-02-03 00:54:00,0.0,1.96075,0.00027,406.794,0.026,0.0754,0.0013,140.001,45.000,27781.54001,1.96223,407.163,32.474,45.068,45.000,0.00,0.09,-272.67,-272.73,-13,22,-1,19.8,2.6,-28.2,20.1,3.2,-25.7,5.73,2.36,-22.6,26.0
2015-02-03 00:55:00,0.0,1.96029,0.00060,406.730,0.050,0.0748,0.0015,140.000,45.000,27781.12994,1.96177,407.099,32.461,45.068,45.000,0.00,0.09,-272.69,-272.73,-14,22,-1,19.8,2.6,-28.2,20.1,3.2,-25.7,5.73,2.44,-22.6,26.0
2015-02-03 00:56:00,0.0,1.96045,0.00036,406.753,0.040,0.0762,0.0012,140.001,45.000,27781.50529,1.96186,407.124,32.445,45.068,45.000,0.00,0.09,-272.68,-272.74,-14,22,-1,19.8,2.6,-28.2,20.1,3.2,-25.7,5.73,2.52,-22.6,26.0
2015-02-03 00:57:00,0.0,1.96054,0.00050,406.717,0.034,0.0748,0.0014,139.998,45.000,27779.98323,1.96198,407.084,32.459,45.068,45.000,0.00,0.09,-272.67,-272.75,-13,22,-1,19.7,2.6,-28.2,20.1,3.2,-25.8,5.73,2.40,-22.6,26.0
2015-02-03 00:58:00,0.0,1.96026,0.00032,406.722,0.035,0.0750,0.0011,140.001,45.000,27780.77652,1.96175,407.088,32.469,45.068,45.001,0.00,0.09,-272.68,-272.74,-13,22,-1,19.7,2.6,-28.3,20.1,3.2,-25.7,5.73,2.38,-22.6,26.0
2015-02-03 00:59:00,0.0,1.96058,0.00033,406.733,0.033,0.0748,0.0016,139.999,45.000,27779.00382,1.96200,407.099,32.499,45.069,45.000,0.00,0.09,-272.69,-272.74,-13,22,-1,19.7,2.6,-28.3,20.1,3.2,-25.7,5.73,2.51,-22.6,26.0
2015-02-03 01:00:00,0.0,1.96042,0.00051,406.724,0.043,0.0761,0.0020,139.996,45.000,27779.62616,1.96192,407.097,32.501,45.068,45.000,0.00,0.09,-272.68,-272.74,-14,22,-1,19.7,2.6,-28.3,20.1,3.2,-25.8,5.73,2.47,-22.6,26.1
2015-02-03 01:01:00,0.0,1.96039,0.00046,406.732,0.028,0.0760,0.0016,139.999,45.000,27779.51178,1.96183,407.104,32.502,45.068,45.000,0.00,0.09,-272.67,-272.74,-13,22,-1,19.7,2.6,-28.2,20.1,3.2,-25.7,5.73,2.36,-22.6,26.0
2015-02-03 01:02:00,0.0,1.96065,0.00032,406.719,0.035,0.0756,0.0016,140.002,45.000,27780.47999,1.96211,407.089,32.537,45.068,45.000,0.00,0.09,-272.69,-272.74,-13,22,-1,19.7,2.6,-28.2,20.1,3.2,-25.8,5.73,2.45,-22.6,26.0
2015-02-03 01:03:00,0.0,1.96089,0.00034,406.733,0.036,0.0755,0.0018,139.999,45.000,27781.15478,1.96232,407.103,32.563,45.068,45.000,0.00,0.09,-272.69,-272.74,-13,22,-1,19.7,2.6,-28.1,20.1,3.2,-25.7,5.73,2.52,-22.6,26.0
2015-02-03 01:04:00,0.0,1.96055,0.00047,406.714,0.034,0.0751,0.0019,140.000,45.000,27783.34791,1.96202,407.083,32.563,45.068,45.000,0.00,0.09,-272.67,-272.74,-13,22,-1,19.7,2.6,-28.3,20.1,3.2,-25.7,5.73,2.40,-22.6,26.0
2015-02-03 01:05:00,0.0,1.96011,0.00025,406.699,0.043,0.0747,0.0014,140.002,45.000,27784.55593,1.96155,407.063,32.566,45.068,44.999,0.00,0.09,-272.67,-272.74,-13,22,-1,19.7,2.6,-28.3,20.1,3.2,-25.7,5.73,2.39,-22.6,26.0
2015-02-03 01:06:00,0.0,1.96003,0.00043,406.682,0.033,0.0742,0.0013,140.001,45.000,27783.54391,1.96146,407.047,32.583,45.068,45.000,0.00,0.09,-272.69,-272.74,-13,22,-1,19.7,2.6,-28.3,20.1,3.2,-25.7,5.73,2.52,-22.6,26.0
2015-02-03 01:07:00,0.0,1.95982,0.00041,406.660,0.046,0.0748,0.0012,140.000,45.000,27783.27829,1.96128,407.025,32.615,45.068,45.000,0.00,0.09,-272.67,-272.74,-13,23,-1,19.7,2.6,-28.3,20.1,3.2,-25.7,5.73,2.46,-22.6,26.0
2015-02-03 01:08:00,0.0,1.95961,0.00036,406.636,0.029,0.0752,0.0017,139.997,45.000,27783.37367,1.96108,407.005,32.624,45.068,45.000,0.00,0.09,-272.68,-272.74,-14,22,-1,19.7,2.6,-28.3,20.1,3.2,-25.7,5.73,2.36,-22.6,26.0
2015-02-03 01:09:00,0.0,1.95936,0.00037,406.641,0.039,0.0755,0.0019,139.999,45.000,27783.38392,1.96081,407.009,32.625,45.068,45.000,0.00,0.09,-272.68,-272.73,-13,23,-1,19.7,2.6,-28.2,20.1,3.2,-25.7,5.73,2.47,-22.6,26.0
2015-02-03 01:10:00,0.0,1.95938,0.00044,406.632,0.033,0.0763,0.0019,139.998,45.000,27783.11894,1.96085,407.005,32.625,45.068,45.000,0.00,0.09,-272.68,-272.75,-13,23,-1,19.7,2.6,-28.1,20.1,3.2,-25.7,5.73,2.51,-22.6,26.0
2015-02-03 01:11:00,0.0,1.95919,0.00032,406.619,0.030,0.0767,0.0013,140.001,45.000,27784.21694,1.96069,406.994,32.626,45.068,45.000,0.00,0.09,-272.67,-272.74,-13,23,-1,19.6,2.6,-28.1,20.1,3.2,-25.7,5.73,2.38,-22.5,26.0
2015-02-03 01:12:00,0.0,1.95884,0.00051,406.582,0.042,0.0772,0.0021,139.996,45.000,27783.72662,1.96034,406.962,32.629,45.068,45.000,0.00,0.09,-272.68,-272.74,-13,23,-1,19.7,2.7,-28.0,20.0,3.2,-25.7,5.73,2.41,-22.6,26.0
2015-02-03 01:13:00,0.0,1.95875,0.00034,406.566,0.032,0.0771,0.0015,139.996,45.000,27783.79658,1.96024,406.944,32.625,45.068,45.000,0.00,0.09,-272.68,-272.75,-13,23,-1,19.7,2.7,-28.0,20.1,3.2,-25.7,5.73,2.52,-22.5,26.0
2015-02-03 01:14:00,0.0,1.95847,0.00037,406.530,0.032,0.0770,0.0022,140.000,45.000,27785.01690,1.95998,406.906,32.625,45.068,45.000,0.00,0.09,-272.67,-272.74,-13,23,-1,19.6,2.6,-28.1,20.1,3.2,-25.7,5.73,2.43,-22.5,26.0
2015-02-03 01:15:00,0.0,1.95932,0.00063,406.653,0.062,0.0769,0.0022,140.000,45.000,27784.93109,1.96075,407.027,32.625,45.068,45.000,0.00,0.09,-272.68,-272.74,-13,23,-1,19.7,2.6,-28.1,20.0,3.2,-25.7,5.73,2.36,-22.5,26.0
2015-02-03 01:16:00,0.0,1.96005,0.00141,406.729,0.163,0.0766,0.0013,139.998,45.000,27785.73888,1.96144,407.099,32.626,45.068,45.000,0.00,0.09,-272.69,-272.73,-13,23,-1,19.7,2.6,-28.1,20.0,3.2,-25.7,5.73,2.49,-22.5,26.0
2015-02-03 01:17:00,0.0,1.96179,0.00047,406.929,0.039,0.0774,0.0016,140.001,45.000,27785.04717,1.96329,407.310,32.627,45.068,45.000,0.00,0.09,-272.68,-272.74,-14,23,-1,19.7,2.6,-28.1,20.0,3.2,-25.7,5.73,2.49,-22.5,26.0
2015-02-03 01:18:00,0.0,1.96095,0.00066,406.853,0.066,0.0763,0.0013,140.004,45.000,27783.22233,1.96246,407.230,32.656,45.068,45.000,0.00,0.09,-272.68,-272.74,-13,23,-1,19.7,2.6,-28.1,20.0,3.2,-25.7,5.73,2.36,-22.5,26.0
2015-02-03 01:19:00,0.0,1.96127,0.00070,406.839,0.069,0.0767,0.0014,140.000,45.000,27784.44177,1.96270,407.213,32.669,45.068,45.000,0.00,0.09,-272.69,-272.74,-13,23,-1,19.7,2.6,-28.1,20.1,3.2,-25.7,5.73,2.43,-22.5,26.0
2015-02-03 01:20:00,0.0,1.96063,0.00070,406.808,0.081,0.0768,0.0019,140.000,45.000,27785.86238,1.96219,407.187,32.690,45.068,45.000,0.00,0.09,-272.68,-272.74,-13,23,-1,19.7,2.6,-28.1,20.1,3.2,-25.7,5.73,2.52,-22.5,26.0
2015-02-03 01:21:00,0.0,1.95992,0.00053,406.707,0.054,0.0772,0.0019,140.001,45.000,27786.56291,1.96141,407.085,32.714,45.068,45.000,0.00,0.09,-272.67,-272.75,-14,23,-1,19.7,2.7,-28.0,20.1,3.2,-25.7,5.73,2.40,-22.5,26.0
2015-02-03 01:22:00,0.0,1.95907,0.00051,406.649,0.035,0.0770,0.0018,140.002,45.000,27786.27659,1.96059,407.026,32.734,45.068,45.000,0.00,0.09,-272.68,-272.74,-13,23,-1,19.7,2.7,-28.0,20.1,3.2,-25.7,5.73,2.39,-22.5,26.0
2015-02-03 01:23:00,0.0,1.95880,0.00034,406.621,0.045,0.0779,0.0013,140.001,45.000,27786.98021,1.96033,407.003,32.730,45.067,44.999,0.00,0.09,-272.69,-272.74,-13,23,-1,19.7,2.7,-27.9,20.1,3.2,-25.6,5.73,2.52,-22.5,26.0
2015-02-03 01:24:00,0.0,1.95895,0.00044,406.620,0.032,0.0779,0.0020,140.000,45.000,27786.50619,1.96039,407.001,32.727,45.067,45.000,0.00,0.09,-272.68,-272.74,-13,23,-1,19.7,2.7,-27.9,20.1,3.2,-25.7,5.73,2.46,-22.5,26.0
2015-02-03 01:25:00,0.0,1.95940,0.00048,406.642,0.036,0.0777,0.0017,140.000,45.000,27784.84384,1.96092,407.022,32.738,45.068,45.000,0.00,0.09,-272.68,-272.74,-14,23,-1,19.7,2.7,-27.9,20.1,3.2,-25.7,5.73,2.36,-22.5,26.0
2015-02-03 01:26:00,0.0,1.95934,0.00040,406.636,0.033,0.0783,0.0012,140.002,45.000,27786.72489,1.96086,407.018,32.750,45.068,45.000,0.00,0.09,-272.69,-272.74,-14,23,-1,19.7,2.7,-27.8,20.1,3.2,-25.7,5.73,2.47,-22.5,26.0
2015-02-03 01:27:00,0.0,1.95936,0.00047,406.661,0.034,0.0780,0.0015,140.000,45.000,27788.55315,1.96086,407.043,32.750,45.068,45.000,0.00,0.09,-272.68,-272.75,-13,23,-1,19.7,2.7,-27.9,20.1,3.2,-25.7,5.73,2.51,-22.5,26.0
2015-02-03 01:28:00,0.0,1.95982,0.00035,406.685,0.043,0.0788,0.0017,140.002,45.000,27789.97924,1.96132,407.070,32.750,45.068,45.000,0.00,0.09,-272.67,-272.75,-13,23,-1,19.7,2.7,-27.8,20.1,3.2,-25.7,5.73,2.37,-22.5,26.0
2015-02-03 01:29:00,0.0,1.95972,0.00032,406.665,0.027,0.0782,0.0022,139.999,45.000,27787.13769,1.96123,407.048,32.759,45.068,45.000,0.00,0.09,-272.69,-272.74,-14,23,-1,19.7,2.7,-27.9,20.1,3.2,-25.7,5.73,2.41,-22.4,26.0
2015-02-03 01:30:00,0.0,1.95915,0.00096,406.612,0.101,0.0789,0.0023,140.002,45.000,27787.21547,1.96071,406.999,32.807,45.068,45.000,0.00,0.09,-272.69,-272.74,-14,23,-1,19.7,2.7,-27.8,20.1,3.2,-25.7,5.73,2.53,-22.4,26.0
2015-02-03 01:31:00,0.0,1.95901,0.00029,406.618,0.032,0.0791,0.0015,139.999,45.000,27787.62958,1.96054,407.004,32.810,45.068,45.000,0.00,0.09,-272.68,-272.74,-13,23,-1,19.7,2.7,-27.8,20.1,3.2,-25.7,5.73,2.41,-22.4,26.0
2015-02-03 01:32:00,0.0,1.95913,0.00038,406.632,0.039,0.0794,0.0021,139.997,45.000,27788.68370,1.96062,407.022,32.779,45.068,45.000,0.00,0.09,-272.68,-272.73,-13,22,-1,19.7,2.7,-27.8,20.1,3.2,-25.6,5.73,2.37,-22.5,26.1
2015-02-03 01:33:00,0.0,1.95886,0.00040,406.578,0.040,0.0781,0.0021,139.998,45.000,27788.06070,1.96039,406.960,32.792,45.068,45.000,0.00,0.09,-272.69,-272.74,-13,23,-1,19.7,2.7,-27.8,20.1,3.2,-25.7,5.73,2.51,-22.4,26.1
2015-02-03 01:34:00,0.0,1.95810,0.00045,406.501,0.048,0.0780,0.0016,140.002,45.000,27791.59598,1.95966,406.885,32.802,45.068,45.000,0.00,0.09,-272.67,-272.74,-14,23,-1,19.7,2.7,-27.9,20.1,3.2,-25.7,5.73,2.47,-22.4,26.1
2015-02-03 01:35:00,0.0,1.95780,0.00051,406.464,0.027,0.0779,0.0017,140.000,45.000,27792.67103,1.95929,406.845,32.806,45.068,45.000,0.00,0.09,-272.67,-272.74,-13,23,-1,19.7,2.7,-27.9,20.1,3.2,-25.7,5.73,2.35,-22.4,26.1
2015-02-03 01:36:00,0.0,1.95754,0.00035,406.455,0.028,0.0786,0.0015,140.000,45.000,27792.89002,1.95906,406.838,32.813,45.068,45.000,0.00,0.09,-272.68,-272.74,-13,23,-1,19.7,2.7,-27.9,20.1,3.2,-25.7,5.73,2.47,-22.4,26.1
2015-02-03 01:37:00,0.0,1.95801,0.00031,406.477,0.035,0.0776,0.0022,140.000,45.000,27792.66896,1.95950,406.858,32.814,45.068,45.000,0.00,0.09,-272.68,-272.74,-13,22,-1,19.7,2.7,-27.9,20.1,3.2,-25.7,5.73,2.51,-22.4,26.0
2015-02-03 01:38:00,0.0,1.95791,0.00037,406.493,0.033,0.0773,0.0014,140.002,45.000,27793.70802,1.95941,406.869,32.833,45.068,45.000,0.00,0.09,-272.67,-272.74,-14,23,-1,19.7,2.7,-28.0,20.1,3.2,-25.7,5.73,2.36,-22.4,26.1
2015-02-03 01:39:00,0.0,1.95821,0.00026,406.534,0.040,0.0780,0.0015,140.003,45.000,27793.98369,1.95968,406.914,32.865,45.068,45.000,0.00,0.09,-272.69,-272.74,-13,23,-1,19.7,2.7,-28.0,20.1,3.2,-25.6,5.73,2.42,-22.4,26.1
2015-02-03 01:40:00,0.0,1.95814,0.00040,406.524,0.036,0.0779,0.0016,140.000,45.000,27792.43012,1.95963,406.907,32.873,45.068,45.000,0.00,0.09,-272.69,-272.75,-13,23,-1,19.7,2.7,-27.9,20.1,3.2,-25.6,5.73,2.52,-22.4,26.1
2015-02-03 01:41:00,0.0,1.95824,0.00036,406.519,0.038,0.0787,0.0021,140.000,45.000,27793.21581,1.95978,406.902,32.874,45.068,45.000,0.00,0.09,-272.68,-272.75,-13,23,-1,19.7,2.7,-27.9,20.1,3.2,-25.6,5.73,2.40,-22.4,26.1
2015-02-03 01:42:00,0.0,1.95820,0.00044,406.521,0.034,0.0774,0.0014,140.001,45.000,27795.56942,1.95967,406.900,32.855,45.068,45.000,0.00,0.09,-272.68,-272.74,-14,23,-1,19.7,2.7,-28.0,20.1,3.2,-25.6,5.73,2.38,-22.4,26.1
2015-02-03 01:43:00,0.0,1.95856,0.00040,406.536,0.030,0.0783,0.0013,139.998,45.000,27796.25609,1.96008,406.920,32.852,45.068,45.000,0.00,0.09,-272.69,-272.74,-13,23,-1,19.8,2.7,-27.9,20.1,3.2,-25.6,5.73,2.52,-22.4,26.1
2015-02-03 01:44:00,0.0,1.95824,0.00029,406.504,0.030,0.0775,0.0019,140.002,45.000,27798.08813,1.95973,406.883,32.873,45.068,45.000,0.00,0.09,-272.68,-272.75,-13,23,-1,19.8,2.7,-27.9,20.1,3.2,-25.6,5.73,2.45,-22.4,26.1
2015-02-03 01:45:00,0.0,1.95848,0.00040,406.496,0.031,0.0784,0.0014,139.999,45.000,27797.81034,1.96000,406.879,32.884,45.068,45.000,0.00,0.09,-272.68,-272.74,-13,23,-1,19.8,2.7,-27.9,20.1,3.2,-25.6,5.73,2.36,-22.4,26.1
2015-02-03 01:46:00,0.0,1.95834,0.00034,406.513,0.020,0.0780,0.0017,140.001,45.000,27799.08320,1.95984,406.895,32.928,45.068,45.000,0.00,0.09,-272.69,-272.73,-14,23,-1,19.8,2.7,-27.9,20.1,3.2,-25.5,5.73,2.48,-22.4,26.1